Location: Las Vegas
(36.1750°N, 115.1360°W)
Time: 20:36:55
(UTC-07:00)

Amateur Radio Satellites - All Passes

Search period start: 30 July 2016 20:06
Search period end: 31 July 2016 20:06
Location: Las Vegas, 36.1750°N, 115.1360°W

Satellite Date Start Highest point End Downlink Frequencies (MHz)
Time Altitude Azimuth
PHONESAT 2.4 30 Jul 20:12:54 20:15:57 57° 205° (SSW) 20:18:58 2401.200-2431.200
O/OREOS (USA 219) 30 Jul 20:13:45 20:18:04 49° 293° (WNW) 20:22:25 437.305
PRISM 30 Jul 20:17:33 20:19:23 13° 93° (E) 20:21:12 437.425
AAUSAT CUBESAT 2 30 Jul 20:19:26 20:23:30 56° 75° (ENE) 20:27:34 437.432
Cosmos 2504 30 Jul 20:22:44 20:27:48 18° 66° (ENE) 20:32:40 435.465 / 435.565
HO-68 30 Jul 20:27:31 20:34:30 54° 259° (WSW) 20:41:33 435.675
FUNcube-1 30 Jul 20:30:55 20:34:46 28° 70° (ENE) 20:38:39 145.935
AO-85 30 Jul 20:32:34 20:33:05 10° 41° (NE) 20:33:35 145.980
ZACube-1 30 Jul 20:33:57 20:37:59 32° 71° (ENE) 20:42:04 437.345
CINEMA 3 30 Jul 20:34:02 20:38:02 30° 264° (W) 20:42:13 145.822/145.860
Cosmos 2491 30 Jul 20:35:54 20:43:56 43° 88° (E) 20:51:57 435.465 / 435.565
STRAND 1 30 Jul 20:38:43 20:43:29 41° 289° (WNW) 20:48:13 437.568
UWE-3 30 Jul 20:42:05 20:46:37 63° 75° (ENE) 20:51:15 435.000/436.395/437.385
CANX-2 30 Jul 20:43:13 20:46:39 23° 265° (W) 20:50:05 2200.000
CUTE 1.7 + AOD 2 30 Jul 20:56:12 20:59:18 19° 266° (W) 21:02:25 437.475
AIST 2 30 Jul 21:07:05 21:09:59 18° 310° (NW) 21:12:55 435.215
Oscar 11 30 Jul 21:07:13 21:11:34 80° 75° (ENE) 21:15:55 145.826/435.025
YUBILEINY 30 Jul 21:11:03 21:19:48 69° 268° (W) 21:28:28 435.215
CUBEBUG 2 30 Jul 21:13:13 21:17:31 39° 262° (W) 21:21:57 437.445
HUMSAT D 30 Jul 21:13:49 21:16:45 18° 68° (ENE) 21:19:41 437.325/437.525
ISS 30 Jul 21:18:49 21:20:20 13° 336° (NNW) 21:21:52 145.825
M-CUBED/EXP-1 PRIME 30 Jul 21:20:02 21:23:36 38° 67° (ENE) 21:27:28 437.505
SEEDS 30 Jul 21:29:35 21:31:03 12° 268° (W) 21:32:32 437.485
COMPASS 1 30 Jul 21:32:33 21:34:58 15° 267° (W) 21:37:24 437.405
AUBIESAT-1 30 Jul 21:42:15 21:46:02 58° 70° (ENE) 21:50:09 437.475
DELFI C3 30 Jul 21:42:41 21:46:40 87° 78° (ENE) 21:50:39 145.870
PRISM 30 Jul 21:50:59 21:54:51 42° 287° (WNW) 21:58:45 437.425
FUNcube-1 30 Jul 22:07:14 22:10:55 24° 265° (W) 22:14:39 145.935
AO-85 30 Jul 22:09:57 22:14:16 87° 236° (SW) 22:18:14 145.980
ZACube-1 30 Jul 22:10:50 22:14:16 21° 266° (W) 22:17:44 437.345
Cosmos 2504 30 Jul 22:14:11 22:22:08 76° 266° (W) 22:29:30 435.465 / 435.565
TIGRISAT 30 Jul 22:19:17 22:23:08 26° 95° (E) 22:26:52 435.000
UWE-3 30 Jul 22:22:21 22:23:27 11° 270° (W) 22:24:34 435.000/436.395/437.385
Cosmos 2491 30 Jul 22:32:56 22:40:45 37° 286° (WNW) 22:48:39 435.465 / 435.565
UNISAT 6 30 Jul 22:36:40 22:41:04 44° 99° (E) 22:45:19 437.425
CUBEBUG 1 30 Jul 22:45:54 22:49:06 21° 69° (ENE) 22:52:20 437.445
HUMSAT D 30 Jul 22:48:10 22:52:04 34° 262° (W) 22:56:01 437.325/437.525
VELOX 1 30 Jul 22:55:29 22:58:58 23° 69° (ENE) 23:02:27 145.980
ESTCUBE 1 30 Jul 22:55:53 23:00:07 42° 73° (ENE) 23:04:21 437.505/2401.250
M-CUBED/EXP-1 PRIME 30 Jul 22:56:20 22:58:21 14° 264° (W) 23:00:27 437.505
ANTELSAT 30 Jul 23:14:52 23:19:26 67° 284° (WNW) 23:23:52 437.575/2403.000
QB50P1 30 Jul 23:18:54 23:21:48 18° 94° (E) 23:24:42 145.935-145.965
DX 1 30 Jul 23:24:58 23:28:55 36° 71° (ENE) 23:32:53 434.975-435.025
POPSAT HIP 1 30 Jul 23:25:29 23:28:44 21° 95° (E) 23:31:57 437.405
UKube-1 30 Jul 23:30:42 23:34:32 32° 71° (ENE) 23:38:23 .
50 SAT 30 Jul 23:31:03 23:34:40 63° 76° (ENE) 23:38:17 437.505
AIST 1 30 Jul 23:38:57 23:42:57 35° 78° (ENE) 23:46:58
AISAT 30 Jul 23:39:45 23:44:08 82° 74° (ENE) 23:48:33 437.250
QB50P2 30 Jul 23:46:53 23:50:56 40° 99° (E) 23:54:57 145.880/145.840
POLYITAN 1 30 Jul 23:49:31 23:53:35 41° 99° (E) 23:57:37 437.675
SPROUT 30 Jul 23:55:21 23:59:28 50° 74° (ENE) 00:03:38 437.525
TIGRISAT 30 Jul 23:55:56 23:59:42 25° 291° (WNW) 00:03:22 435.000
JUGNU 31 Jul 00:06:46 00:09:34 13° 171° (S) 00:12:23 437.505
UNISAT 6 31 Jul 00:14:37 00:17:21 16° 294° (WNW) 00:20:03 437.425
CUBEBUG 1 31 Jul 00:21:26 00:25:11 29° 263° (W) 00:28:58 437.445
BUGSAT 1 31 Jul 00:27:32 00:31:36 42° 99° (E) 00:35:37 437.445
NANOSAT C BR1 31 Jul 00:28:28 00:32:43 70° 284° (WNW) 00:36:56 145.865
DUCHIFAT 1 31 Jul 00:30:37 00:34:53 71° 283° (WNW) 00:39:05 145.980
VELOX 1 31 Jul 00:31:35 00:35:17 26° 264° (W) 00:39:00 145.980
ESTCUBE 1 31 Jul 00:34:31 00:37:05 15° 267° (W) 00:39:40 437.505/2401.250
TISAT 1 31 Jul 00:35:34 00:39:17 31° 71° (ENE) 00:43:02 437.305
QB50P1 31 Jul 00:53:47 00:57:38 33° 288° (WNW) 01:01:27 145.935-145.965
POPSAT HIP 1 31 Jul 01:00:49 01:04:29 28° 290° (WNW) 01:08:07 437.405
DX 1 31 Jul 01:02:26 01:05:12 17° 266° (W) 01:07:59 434.975-435.025
Cosmos 2499 31 Jul 01:02:53 01:06:53 15° 65° (ENE) 01:10:46 435.465 / 435.565
SWISSCUBE 31 Jul 01:03:12 01:05:50 15° 65° (ENE) 01:08:28 437.505
UKube-1 31 Jul 01:07:38 01:10:37 18° 265° (W) 01:13:36 .
JAS-2 31 Jul 01:11:15 01:16:44 86° 106° (ESE) 01:22:50 435.910
AIST 1 31 Jul 01:17:33 01:20:13 16° 273° (W) 01:22:53
GONETS M04 31 Jul 01:19:55 01:27:47 35° 74° (ENE) 01:35:37
BEESAT 31 Jul 01:22:58 01:26:33 22° 67° (ENE) 01:30:09 436.000
QB50P2 31 Jul 01:23:53 01:26:22 15° 293° (WNW) 01:28:50 145.880/145.840
POLYITAN 1 31 Jul 01:26:34 01:28:59 15° 294° (WNW) 01:31:25 437.675
SPROUT 31 Jul 01:34:14 01:35:40 11° 268° (W) 01:37:08 437.525
Oscar 19 31 Jul 01:43:53 01:48:52 45° 100° (E) 01:53:49 437.125/150
ITUPSAT 1 31 Jul 01:48:01 01:52:26 38° 71° (ENE) 01:56:52 437.325
JUGNU 31 Jul 01:54:16 01:57:48 16° 181° (S) 02:01:19 437.505
Gurwin Techsat 1B 31 Jul 01:59:43 02:04:15 28° 96° (E) 02:08:44 435.225
BUGSAT 1 31 Jul 02:04:13 02:06:34 15° 294° (WNW) 02:08:55 437.445
ISS 31 Jul 02:10:10 02:13:11 34° 35° (NE) 02:16:12 145.825
TISAT 1 31 Jul 02:12:05 02:14:58 18° 266° (W) 02:17:52 437.305
SRMSAT 31 Jul 02:31:41 02:34:33 14° 172° (S) 02:37:25 437.500
BEESAT 3 31 Jul 02:36:16 02:40:14 79° 60° (ENE) 02:44:11 437.485
SWISSCUBE 31 Jul 02:38:29 02:43:09 53° 260° (W) 02:47:50 437.505
DANDE 31 Jul 02:41:58 02:44:12 13° 94° (E) 02:46:12 436.750
PCSat 31 Jul 02:51:05 02:55:26 24° 52° (NE) 02:59:45 145.827
BEESAT 2 31 Jul 02:51:12 02:55:10 58° 59° (ENE) 02:59:05 435.950
Cosmos 2499 31 Jul 02:53:26 03:01:06 84° 265° (W) 03:08:15 435.465 / 435.565
BEESAT 31 Jul 02:59:43 03:04:05 35° 262° (W) 03:08:27 436.000
JAS-2 31 Jul 02:59:43 03:01:14 11° 298° (WNW) 03:02:46 435.910
MOZHAYETS 4 31 Jul 03:01:58 03:05:51 27° 70° (ENE) 03:09:45
GONETS M04 31 Jul 03:16:26 03:24:42 47° 271° (W) 03:33:00
CUSAT 1 31 Jul 03:18:37 03:22:34 76° 278° (W) 03:25:41 437.405
Oscar 19 31 Jul 03:24:10 03:27:48 20° 294° (WNW) 03:31:27 437.125/150
ITUPSAT 1 31 Jul 03:26:56 03:30:21 19° 266° (W) 03:33:47 437.325
ITAMSAT 1 31 Jul 03:27:43 03:32:52 63° 102° (ESE) 03:37:59 435.822/435.867
KKS-1 31 Jul 03:31:45 03:36:04 54° 74° (ENE) 03:40:25 437.445
AO-7 31 Jul 03:37:23 03:44:53 36° 99° (E) 03:52:17 29.400- 29.500
Gurwin Techsat 1B 31 Jul 03:39:28 03:44:08 32° 291° (WNW) 03:48:47 435.225
JUGNU 31 Jul 03:43:49 03:46:02 12° 191° (SSW) 03:48:14 437.505
ISS 31 Jul 03:47:03 03:49:26 19° 231° (SW) 03:51:49 145.825
AIST 2 31 Jul 03:52:27 03:54:34 13° 47° (NE) 03:56:41 435.215
STARS 31 Jul 03:58:20 04:02:35 51° 74° (ENE) 04:06:53 437.465
RS-15 31 Jul 04:18:15 04:25:54 21° 99° (E) 04:33:44 29.354- 29.394
SRMSAT 31 Jul 04:19:29 04:22:56 16° 182° (S) 04:26:22 437.500
DANDE 31 Jul 04:21:46 04:26:55 46° 279° (W) 04:30:48 436.750
CUBESAT XI-V 31 Jul 04:33:13 04:37:13 30° 71° (ENE) 04:41:13 437.345
PCSat 31 Jul 04:33:52 04:39:00 45° 249° (WSW) 04:44:06 145.827
MOZHAYETS 4 31 Jul 04:39:07 04:42:56 25° 264° (W) 04:46:45
O/OREOS (USA 219) 31 Jul 04:47:59 04:51:03 18° 59° (ENE) 04:54:06 437.305
HORYU 2 31 Jul 04:50:00 04:53:22 21° 95° (E) 04:56:42 437.375
Cosmos 2499 31 Jul 04:51:02 04:52:44 11° 284° (WNW) 04:54:25 435.465 / 435.565
ITAMSAT 1 31 Jul 05:09:00 05:11:45 15° 297° (WNW) 05:14:29 435.822/435.867
KKS-1 31 Jul 05:11:25 05:12:55 11° 268° (W) 05:14:26 437.445
BRITE-PL 31 Jul 05:29:06 05:32:40 19° 94° (E) 05:36:22 437.365/2234.400
AIST 2 31 Jul 05:29:18 05:33:24 59° 244° (WSW) 05:37:30 435.215
AO-7 31 Jul 05:29:51 05:37:41 47° 295° (WNW) 05:45:29 29.400- 29.500
STARS 31 Jul 05:37:32 05:39:13 12° 268° (W) 05:40:53 437.465
CUTE-I 31 Jul 05:41:14 05:43:10 12° 91° (E) 05:45:06 437.470
NOAA 15 31 Jul 05:45:05 05:48:43 19° 94° (E) 05:52:19 137.62
GOMX 1 31 Jul 06:08:05 06:12:06 22° 94° (E) 06:16:13 467.674
SRMSAT 31 Jul 06:09:26 06:11:17 11° 192° (SSW) 06:13:08 437.500
CUBESAT XI-V 31 Jul 06:10:58 06:14:34 22° 265° (W) 06:18:11 437.345
STRAND 1 31 Jul 06:13:50 06:17:48 23° 67° (ENE) 06:21:47 437.568
RS-15 31 Jul 06:25:10 06:36:35 88° 297° (WNW) 06:48:43 29.354- 29.394
HORYU 2 31 Jul 06:26:00 06:29:55 30° 290° (WNW) 06:33:48 437.375
O/OREOS (USA 219) 31 Jul 06:26:20 06:30:36 40° 255° (WSW) 06:34:52 437.305
SO-50 31 Jul 06:45:22 06:50:12 67° 117° (ESE) 06:55:02 436.795
Cosmos 2491 31 Jul 06:50:37 06:56:12 18° 66° (ENE) 07:01:44 435.465 / 435.565
NOAA 18 31 Jul 06:52:52 06:58:22 63° 102° (ESE) 07:03:48 137.9125
Cubesat XI-IV 31 Jul 06:56:09 07:01:30 71° 102° (ESE) 07:06:47 437.490
BRITE-PL 31 Jul 07:06:24 07:11:13 47° 287° (WNW) 07:16:23 437.365/2234.400
DOVE 4 31 Jul 07:15:10 07:20:14 47° 99° (E) 07:25:20 437.250
LilacSat-2 31 Jul 07:16:46 07:20:30 50° 285° (WNW) 07:24:11 437.200
CUTE-I 31 Jul 07:18:22 07:23:41 71° 286° (WNW) 07:28:57 437.470
NOAA 15 31 Jul 07:23:38 07:28:40 47° 288° (WNW) 07:33:42 137.62
GOMX 1 31 Jul 07:45:19 07:50:13 42° 287° (WNW) 07:55:19 467.674
STRAND 1 31 Jul 07:51:59 07:56:43 37° 262° (W) 08:01:29 437.568
HO-68 31 Jul 07:58:20 08:04:47 35° 98° (E) 08:11:10 435.675
AAUSAT CUBESAT 2 31 Jul 08:07:16 08:07:51 10° 91° (E) 08:08:27 437.432
YUBILEINY 31 Jul 08:13:26 08:20:34 29° 84° (E) 08:27:44 435.215
SO-50 31 Jul 08:28:08 08:31:08 16° 314° (NW) 08:34:08 436.795
CANX-2 31 Jul 08:29:51 08:34:03 71° 101° (E) 08:38:13 2200.000
CINEMA 3 31 Jul 08:30:33 08:35:35 80° 101° (ESE) 08:40:29 145.822/145.860
NOAA 18 31 Jul 08:35:07 08:38:26 16° 298° (WNW) 08:41:45 137.9125
UWE-3 31 Jul 08:36:01 08:38:45 16° 92° (E) 08:41:25 435.000/436.395/437.385
PRISM 31 Jul 08:37:15 08:41:18 89° 253° (WSW) 08:45:23 437.425
Cubesat XI-IV 31 Jul 08:38:20 08:40:54 14° 298° (WNW) 08:43:29 437.490
RS-15 31 Jul 08:41:24 08:50:59 28° 324° (NW) 09:00:59 29.354- 29.394
CUTE 1.7 + AOD 2 31 Jul 08:42:20 08:46:33 86° 107° (ESE) 08:50:44 437.475
Cosmos 2491 31 Jul 08:45:16 08:54:04 84° 265° (W) 09:02:53 435.465 / 435.565
DOVE 4 31 Jul 08:53:47 08:57:32 20° 293° (WNW) 09:01:18 437.250
Cosmos 2504 31 Jul 08:58:00 09:03:24 18° 80° (E) 09:08:46 435.465 / 435.565
Oscar 11 31 Jul 08:58:11 09:01:04 17° 94° (E) 09:03:56 145.826/435.025
CUBEBUG 2 31 Jul 09:06:36 09:11:11 55° 100° (E) 09:15:35 437.445
SEEDS 31 Jul 09:12:59 09:17:04 57° 285° (WNW) 09:21:08 437.485
TIGRISAT 31 Jul 09:15:43 09:18:54 18° 67° (ENE) 09:22:06 435.000
COMPASS 1 31 Jul 09:15:54 09:20:02 79° 283° (WNW) 09:24:08 437.405
DELFI C3 31 Jul 09:24:34 09:26:26 13° 93° (E) 09:28:18 145.870
UNISAT 6 31 Jul 09:32:43 09:36:44 29° 70° (ENE) 09:40:48 437.425
AAUSAT CUBESAT 2 31 Jul 09:39:37 09:43:36 51° 285° (WNW) 09:47:35 437.432
HO-68 31 Jul 09:45:51 09:52:28 41° 294° (WNW) 09:59:02 435.675
FUNcube-1 31 Jul 09:57:06 10:01:33 82° 104° (ESE) 10:05:50 145.935
ZACube-1 31 Jul 10:00:42 10:05:10 85° 283° (WNW) 10:09:29 437.345
YUBILEINY 31 Jul 10:08:15 10:16:47 55° 281° (WNW) 10:25:27 435.215
ANTELSAT 31 Jul 10:10:15 10:14:53 76° 76° (ENE) 10:19:36 437.575/2403.000
CINEMA 3 31 Jul 10:10:44 10:11:57 11° 298° (WNW) 10:13:10 145.822/145.860
UWE-3 31 Jul 10:11:07 10:15:23 41° 287° (WNW) 10:19:31 435.000/436.395/437.385
POPSAT HIP 1 31 Jul 10:17:07 10:18:41 12° 65° (ENE) 10:20:15 437.405
Oscar 11 31 Jul 10:33:23 10:37:16 33° 288° (WNW) 10:41:07 145.826/435.025
HUMSAT D 31 Jul 10:33:59 10:37:58 43° 99° (E) 10:41:52 437.325/437.525
M-CUBED/EXP-1 PRIME 31 Jul 10:35:31 10:40:06 49° 104° (ESE) 10:44:34 437.505
QB50P2 31 Jul 10:37:21 10:40:38 22° 69° (ENE) 10:43:58 145.880/145.840
POLYITAN 1 31 Jul 10:39:56 10:43:16 23° 69° (ENE) 10:46:38 437.675
CUBEBUG 2 31 Jul 10:45:01 10:47:14 13° 295° (WNW) 10:49:25 437.445
Cosmos 2491 31 Jul 10:45:37 10:49:29 14° 283° (WNW) 10:53:22 435.465 / 435.565
Cosmos 2504 31 Jul 10:46:45 10:55:39 85° 276° (W) 11:04:30 435.465 / 435.565
TIGRISAT 31 Jul 10:50:52 10:55:14 40° 262° (W) 10:59:40 435.000
ESTCUBE 1 31 Jul 10:53:33 10:54:38 11° 91° (E) 10:55:44 437.505/2401.250
AUBIESAT-1 31 Jul 10:57:25 11:02:04 71° 107° (ESE) 11:06:34 437.475
DELFI C3 31 Jul 10:57:47 11:01:25 37° 287° (WNW) 11:05:03 145.870
RS-15 31 Jul 11:03:24 11:09:44 15° 0° (N) 11:16:08 29.354- 29.394
UNISAT 6 31 Jul 11:09:37 11:13:22 24° 265° (W) 11:17:11 437.425
BUGSAT 1 31 Jul 11:15:17 11:18:21 21° 69° (ENE) 11:21:27 437.445
NANOSAT C BR1 31 Jul 11:17:33 11:21:42 58° 75° (ENE) 11:25:54 145.865
DUCHIFAT 1 31 Jul 11:19:27 11:23:36 57° 74° (ENE) 11:27:47 145.980
JAS-2 31 Jul 11:22:12 11:26:51 26° 69° (ENE) 11:31:13 435.910
AISAT 31 Jul 11:33:27 11:36:37 19° 94° (E) 11:39:47 437.250
QB50P1 31 Jul 11:42:48 11:47:00 64° 258° (WSW) 11:51:16 145.935-145.965
SPROUT 31 Jul 11:46:41 11:47:34 10° 91° (E) 11:48:26 437.525
POPSAT HIP 1 31 Jul 11:49:48 11:53:57 53° 260° (W) 11:58:09 437.405
AIST 1 31 Jul 12:05:59 12:09:20 23° 89° (E) 12:12:41
M-CUBED/EXP-1 PRIME 31 Jul 12:11:09 12:14:10 17° 299° (WNW) 12:17:08 437.505
HUMSAT D 31 Jul 12:11:12 12:13:09 13° 294° (WNW) 12:15:06 437.325/437.525
CUBEBUG 1 31 Jul 12:11:49 12:16:11 60° 101° (E) 12:20:33 437.445
QB50P2 31 Jul 12:12:41 12:16:17 27° 264° (W) 12:19:55 145.880/145.840
POLYITAN 1 31 Jul 12:15:20 12:18:55 26° 264° (W) 12:22:32 437.675
AO-85 31 Jul 12:20:06 12:25:27 63° 116° (ESE) 12:30:35 145.980
VELOX 1 31 Jul 12:23:20 12:27:47 68° 101° (E) 12:32:12 145.980
ESTCUBE 1 31 Jul 12:27:21 12:31:46 58° 285° (WNW) 12:36:10 437.505/2401.250
AUBIESAT-1 31 Jul 12:34:06 12:35:51 12° 301° (WNW) 12:37:36 437.475
50 SAT 31 Jul 12:35:39 12:39:13 68° 283° (WNW) 12:42:46 437.505
Cosmos 2504 31 Jul 12:45:13 12:50:14 16° 295° (WNW) 12:55:14 435.465 / 435.565
BUGSAT 1 31 Jul 12:50:04 12:53:32 27° 264° (W) 12:57:04 437.445
DX 1 31 Jul 12:51:15 12:55:39 81° 285° (WNW) 13:00:02 434.975-435.025
UKube-1 31 Jul 12:55:40 13:00:01 88° 115° (ESE) 13:04:21 .
Oscar 19 31 Jul 12:58:05 13:03:00 50° 72° (ENE) 13:07:57 437.125/150
JAS-2 31 Jul 13:06:20 13:11:48 37° 261° (W) 13:16:49 435.910
AISAT 31 Jul 13:09:06 13:13:08 34° 289° (WNW) 13:17:09 437.250
Gurwin Techsat 1B 31 Jul 13:18:08 13:22:53 35° 70° (ENE) 13:27:40 435.225
RS-15 31 Jul 13:18:22 13:28:32 28° 36° (NE) 13:38:37 29.354- 29.394
SPROUT 31 Jul 13:19:34 13:23:48 55° 285° (WNW) 13:28:00 437.525
Cosmos 2499 31 Jul 13:36:49 13:41:15 15° 79° (ENE) 13:45:37 435.465 / 435.565
AIST 1 31 Jul 13:43:26 13:46:48 23° 284° (WNW) 13:50:12
CUBEBUG 1 31 Jul 13:50:29 13:51:56 11° 295° (WNW) 13:53:23 437.445
CUSAT 1 31 Jul 13:52:07 13:55:25 40° 81° (E) 13:59:36 437.405
ITUPSAT 1 31 Jul 13:53:20 13:54:58 12° 92° (E) 13:56:35 437.325
TISAT 1 31 Jul 13:56:57 14:01:14 84° 102° (ESE) 14:05:28 437.305
AO-85 31 Jul 14:02:33 14:06:17 19° 312° (NW) 14:09:56 145.980
VELOX 1 31 Jul 14:03:00 14:03:38 10° 297° (WNW) 14:04:16 145.980
PHONESAT 2.4 31 Jul 14:17:22 14:20:10 34° 151° (SSE) 14:22:59 2401.200-2431.200
GONETS M04 31 Jul 14:17:33 14:25:32 43° 88° (E) 14:33:34
AO-7 31 Jul 14:33:25 14:41:00 40° 63° (ENE) 14:48:35 29.400- 29.500
Oscar 19 31 Jul 14:39:25 14:42:34 16° 267° (W) 14:45:43 437.125/150
SWISSCUBE 31 Jul 14:41:15 14:45:49 47° 100° (E) 14:50:23 437.505
ITAMSAT 1 31 Jul 14:42:52 14:48:05 74° 74° (ENE) 14:53:18 435.822/435.867
Gurwin Techsat 1B 31 Jul 14:58:29 15:02:50 26° 264° (W) 15:07:13 435.225
DANDE 31 Jul 15:01:40 15:04:29 89° 58° (ENE) 15:07:56 436.750
BEESAT 31 Jul 15:01:55 15:06:40 71° 102° (ESE) 15:11:24 436.000
SO-50 31 Jul 15:19:55 15:23:55 28° 52° (NE) 15:27:49 436.795
Cosmos 2499 31 Jul 15:24:14 15:33:08 86° 95° (E) 15:41:47 435.465 / 435.565
KKS-1 31 Jul 15:27:09 15:29:11 13° 92° (E) 15:31:14 437.445
ITUPSAT 1 31 Jul 15:28:28 15:33:09 61° 286° (WNW) 15:37:50 437.325
RS-15 31 Jul 15:30:34 15:43:03 86° 61° (ENE) 15:55:13 29.354- 29.394
HORYU 2 31 Jul 15:46:18 15:48:53 15° 65° (ENE) 15:51:26 437.375
STARS 31 Jul 15:52:37 15:54:08 11° 92° (E) 15:55:38 437.465
PHONESAT 2.4 31 Jul 15:53:35 15:56:35 51° 346° (NNW) 15:59:36 2401.200-2431.200
GONETS M04 31 Jul 16:14:31 16:22:20 37° 286° (WNW) 16:30:15
SWISSCUBE 31 Jul 16:20:17 16:23:12 16° 295° (WNW) 16:26:07 437.505
BEESAT 3 31 Jul 16:24:51 16:28:01 24° 112° (ESE) 16:31:13 437.485
AO-7 31 Jul 16:25:47 16:33:36 43° 260° (W) 16:41:28 29.400- 29.500
ITAMSAT 1 31 Jul 16:26:34 16:28:01 11° 269° (W) 16:29:26 435.822/435.867
MOZHAYETS 4 31 Jul 16:35:45 16:40:21 88° 279° (W) 16:44:53
BRITE-PL 31 Jul 16:39:51 16:41:23 12° 65° (ENE) 16:42:56 437.365/2234.400
NOAA 18 31 Jul 16:40:28 16:42:08 11° 59° (ENE) 16:43:49 137.9125
Cubesat XI-IV 31 Jul 16:40:41 16:41:31 10° 60° (ENE) 16:42:21 437.490
BEESAT 2 31 Jul 16:41:33 16:44:21 19° 111° (ESE) 16:47:11 435.950
BEESAT 31 Jul 16:42:29 16:43:49 11° 297° (WNW) 16:45:08 436.000
CUTE-I 31 Jul 16:59:53 17:03:15 17° 64° (ENE) 17:06:37 437.470
SO-50 31 Jul 17:00:26 17:04:17 27° 248° (WSW) 17:08:03 436.795
KKS-1 31 Jul 17:01:39 17:06:00 50° 287° (WNW) 17:10:19 437.445
NOAA 15 31 Jul 17:02:33 17:06:40 24° 67° (ENE) 17:10:46 137.62
GOMX 1 31 Jul 17:15:37 17:17:40 13° 65° (ENE) 17:19:46 467.674
HORYU 2 31 Jul 17:20:42 17:25:00 46° 260° (W) 17:29:20 437.375
Cosmos 2499 31 Jul 17:21:28 17:27:10 18° 293° (WNW) 17:32:48 435.465 / 435.565
STARS 31 Jul 17:26:25 17:30:46 54° 286° (WNW) 17:35:05 437.465
PCSat 31 Jul 17:29:46 17:34:36 34° 109° (ESE) 17:39:28 145.827
PHONESAT 2.4 31 Jul 17:30:32 17:33:24 34° 3° (N) 17:36:16 2401.200-2431.200
RS-15 31 Jul 17:45:17 17:53:57 23° 260° (W) 18:02:32 29.354- 29.394
LilacSat-2 31 Jul 17:55:40 17:59:24 49° 75° (ENE) 18:03:11 437.200
BEESAT 3 31 Jul 18:02:22 18:05:36 24° 308° (NW) 18:08:50 437.485
CUBESAT XI-V 31 Jul 18:08:48 18:13:26 75° 283° (WNW) 18:18:02 437.345
Cubesat XI-IV 31 Jul 18:15:22 18:20:45 88° 72° (ENE) 18:26:09 437.490
BRITE-PL 31 Jul 18:15:27 18:19:26 46° 261° (W) 18:23:30 437.365/2234.400
NOAA 18 31 Jul 18:16:25 18:21:57 90° 251° (WSW) 18:27:33 137.9125
BEESAT 2 31 Jul 18:18:27 18:21:57 30° 306° (NW) 18:25:30 435.950
DOVE 4 31 Jul 18:18:34 18:22:22 30° 70° (ENE) 18:26:23 437.250
HO-68 31 Jul 18:25:36 18:30:35 21° 59° (ENE) 18:35:34 435.675
YUBILEINY 31 Jul 18:29:43 18:31:43 11° 60° (ENE) 18:33:44 435.215
CUTE-I 31 Jul 18:37:31 18:42:47 56° 259° (W) 18:48:05 437.470
NOAA 15 31 Jul 18:41:21 18:46:10 37° 261° (W) 18:51:02 137.62
ISS 31 Jul 18:47:28 18:50:34 43° 135° (SE) 18:53:42 145.825
GOMX 1 31 Jul 18:51:17 18:55:17 45° 261° (W) 18:59:31 467.674
O/OREOS (USA 219) 31 Jul 18:57:02 19:00:54 30° 103° (ESE) 19:04:48 437.305
PHONESAT 2.4 31 Jul 19:07:02 19:10:07 76° 20° (NNE) 19:13:11 2401.200-2431.200
PCSat 31 Jul 19:13:16 19:17:58 30° 305° (NW) 19:22:42 145.827
CANX-2 31 Jul 19:19:55 19:23:48 34° 72° (ENE) 19:27:40 2200.000
AIST 2 31 Jul 19:24:01 19:28:00 53° 116° (ESE) 19:32:01 435.215
CINEMA 3 31 Jul 19:29:08 19:33:33 51° 74° (ENE) 19:38:13 145.822/145.860
CUTE 1.7 + AOD 2 31 Jul 19:32:08 19:36:09 41° 73° (ENE) 19:40:10 437.475
UWE-3 31 Jul 19:32:18 19:33:11 10° 63° (ENE) 19:34:04 435.000/436.395/437.385
Cosmos 2491 31 Jul 19:49:13 19:55:25 22° 81° (E) 20:01:38 435.465 / 435.565
Oscar 11 31 Jul 19:52:39 19:53:26 10° 64° (ENE) 19:54:13 145.826/435.025
DOVE 4 31 Jul 19:56:51 20:00:06 20° 267° (W) 20:03:30 437.250
